START_TIME,STEP,MOV.,P11,t_acc.,P23,t_acc.,P27,t_acc.,A4,t_acc.
1979-07-19 23:00:22.920 ,1,0,3.,4.8,0.,4.8,0.,4.8,0.,4.8
1979-07-19 23:00:27.720 ,1,0,0.,4.8,0.,4.8,0.,4.8,0.,4.8
1979-07-19 23:00:32.520 ,1,0,1.,4.8,0.,4.8,0.,4.8,0.,4.8
1979-07-19 23:00:37.320 ,1,0,4.,4.8,0.,4.8,0.,4.8,0.,4.8
1979-07-19 23:00:42.120 ,1,0,0.,4.8,0.,4.8,0.,4.8,0.,4.8
1979-07-19 23:01:10.920 ,2,0,0.,4.8,0.,4.8,0.,4.8,0.,4.8
1979-07-19 23:01:15.720 ,2,0,1.,4.8,0.,4.8,0.,4.8,0.,4.8
1979-07-19 23:01:20.520 ,2,0,1.,4.8,0.,4.8,0.,4.8,0.,4.8
1979-07-19 23:01:25.320 ,2,0,2.,4.8,0.,4.8,1.,4.8,0.,4.8
1979-07-19 23:01:30.120 ,2,0,3.,4.8,1.,4.8,0.,4.8,0.,4.8
1979-07-19 23:01:34.920 ,3,0,1.,4.8,0.,4.8,1.,4.8,0.,4.8
1979-07-19 23:01:39.720 ,3,0,4.,4.8,0.,4.8,0.,4.8,0.,4.8
1979-07-19 23:01:44.520 ,3,0,4.,4.8,0.,4.8,0.,4.8,0.,4.8
1979-07-19 23:01:49.320 ,3,0,3.,4.8,0.,4.8,1.,4.8,0.,4.8
1979-07-19 23:01:54.120 ,3,0,2.,4.8,0.,4.8,0.,4.8,0.,4.8
1979-07-19 23:01:58.920 ,3,0,0.,4.8,0.,4.8,0.,4.8,0.,4.8
1979-07-19 23:02:03.720 ,3,0,3.,4.8,0.,4.8,0.,4.8,0.,4.8
1979-07-19 23:02:08.520 ,3,0,4.,4.8,0.,4.8,0.,4.8,0.,4.8
1979-07-19 23:02:13.320 ,3,0,1.,4.8,0.,4.8,0.,4.8,0.,4.8
1979-07-19 23:02:18.120 ,3,0,1.,4.8,0.,4.8,1.,4.8,0.,4.8
1979-07-19 23:02:22.920 ,4,0,1.,4.8,0.,4.8,0.,4.8,0.,4.8
1979-07-19 23:02:27.720 ,4,0,1.,4.8,0.,4.8,0.,4.8,1.,4.8
1979-07-19 23:02:32.510 ,4,0,0.,4.8,0.,4.8,0.,4.8,0.,4.8
1979-07-19 23:02:37.320 ,4,0,1.,4.8,0.,4.8,0.,4.8,0.,4.8
1979-07-19 23:02:42.120 ,4,0,2.,4.8,0.,4.8,0.,4.8,0.,4.8
1979-07-19 23:02:46.910 ,4,0,1.,4.8,0.,4.8,0.,4.8,0.,4.8
1979-07-19 23:02:51.710 ,4,0,2.,4.8,0.,4.8,0.,4.8,0.,4.8
1979-07-19 23:02:56.510 ,4,0,3.,4.8,0.,4.8,0.,4.8,0.,4.8
1979-07-19 23:03:01.320 ,4,0,0.,4.8,0.,4.8,0.,4.8,0.,4.8
1979-07-19 23:03:06.120 ,4,0,3.,4.8,0.,4.8,0.,4.8,0.,4.8
1979-07-19 23:03:10.920 ,5,0,0.,4.8,0.,4.8,0.,4.8,0.,4.8
1979-07-19 23:03:15.720 ,5,0,2.,4.8,0.,4.8,0.,4.8,0.,4.8
1979-07-19 23:03:20.520 ,5,0,1.,4.8,0.,4.8,0.,4.8,2.,4.8
1979-07-19 23:03:25.320 ,5,0,3.,4.8,0.,4.8,0.,4.8,0.,4.8
1979-07-19 23:03:30.120 ,5,0,1.,4.8,0.,4.8,0.,4.8,0.,4.8
1979-07-19 23:03:34.910 ,5,0,2.,4.8,0.,4.8,0.,4.8,0.,4.8
1979-07-19 23:03:39.710 ,5,0,0.,4.8,0.,4.8,0.,4.8,0.,4.8
1979-07-19 23:03:44.510 ,5,0,4.,4.8,0.,4.8,0.,4.8,0.,4.8
1979-07-19 23:03:49.320 ,5,0,1.,4.8,0.,4.8,0.,4.8,0.,4.8
1979-07-19 23:03:54.120 ,5,0,2.,4.8,0.,4.8,0.,4.8,1.,4.8
1979-07-19 23:03:58.910 ,6,0,0.,4.8,0.,4.8,1.,4.8,0.,4.8
1979-07-19 23:04:03.710 ,6,0,1.,4.8,0.,4.8,1.,4.8,0.,4.8
1979-07-19 23:04:08.510 ,6,0,1.,4.8,0.,4.8,0.,4.8,0.,4.8
1979-07-19 23:04:13.320 ,6,0,1.,4.8,0.,4.8,0.,4.8,1.,4.8
1979-07-19 23:04:18.120 ,6,0,2.,4.8,1.,4.8,0.,4.8,0.,4.8
1979-07-19 23:04:22.920 ,6,0,0.,4.8,0.,4.8,1.,4.8,0.,4.8
1979-07-19 23:04:27.710 ,6,0,0.,4.8,0.,4.8,0.,4.8,0.,4.8
1979-07-19 23:04:32.520 ,6,0,2.,4.8,0.,4.8,0.,4.8,0.,4.8
1979-07-19 23:04:37.320 ,6,0,0.,4.8,0.,4.8,0.,4.8,0.,4.8
1979-07-19 23:04:42.120 ,6,0,2.,4.8,0.,4.8,0.,4.8,0.,4.8
1979-07-19 23:04:46.920 ,7,0,1.,4.8,0.,4.8,0.,4.8,0.,4.8
1979-07-19 23:04:51.710 ,7,0,2.,4.8,0.,4.8,0.,4.8,0.,4.8
1979-07-19 23:04:56.520 ,7,0,0.,4.8,0.,4.8,0.,4.8,0.,4.8
1979-07-19 23:05:01.320 ,7,0,1.,4.8,0.,4.8,0.,4.8,0.,4.8
1979-07-19 23:05:06.120 ,7,0,0.,4.8,0.,4.8,0.,4.8,0.,4.8
1979-07-19 23:05:10.920 ,7,0,0.,4.8,0.,4.8,0.,4.8,0.,4.8
1979-07-19 23:05:15.710 ,7,0,1.,4.8,0.,4.8,0.,4.8,0.,4.8
1979-07-19 23:05:20.520 ,7,0,2.,4.8,0.,4.8,0.,4.8,0.,4.8
1979-07-19 23:05:25.320 ,7,0,2.,4.8,0.,4.8,0.,4.8,0.,4.8
1979-07-19 23:05:30.120 ,7,0,0.,4.8,0.,4.8,0.,4.8,0.,4.8
1979-07-19 23:05:34.920 ,7,0,0.,4.8,0.,4.8,0.,4.8,0.,4.8
1979-07-19 23:05:39.710 ,7,0,0.,4.8,0.,4.8,0.,4.8,0.,4.8
1979-07-19 23:05:44.520 ,7,0,0.,4.8,0.,4.8,0.,4.8,0.,4.8
1979-07-19 23:05:49.320 ,7,0,1.,4.8,0.,4.8,0.,4.8,0.,4.8
1979-07-19 23:05:54.120 ,7,0,0.,4.8,0.,4.8,0.,4.8,0.,4.8
1979-07-19 23:05:58.920 ,7,0,1.,4.8,0.,4.8,0.,4.8,0.,4.8
1979-07-19 23:06:03.710 ,7,0,2.,4.8,0.,4.8,0.,4.8,0.,4.8
1979-07-19 23:06:08.520 ,7,0,1.,4.8,0.,4.8,0.,4.8,0.,4.8
1979-07-19 23:06:13.320 ,7,0,3.,4.8,0.,4.8,1.,4.8,0.,4.8
1979-07-19 23:06:18.120 ,7,0,1.,4.8,0.,4.8,1.,4.8,0.,4.8
1979-07-19 23:06:22.920 ,6,0,0.,4.8,0.,4.8,0.,4.8,0.,4.8
1979-07-19 23:06:27.710 ,6,0,2.,4.8,0.,4.8,0.,4.8,0.,4.8
1979-07-19 23:06:32.520 ,6,0,2.,4.8,0.,4.8,0.,4.8,0.,4.8
1979-07-19 23:06:37.320 ,6,0,1.,4.8,0.,4.8,0.,4.8,0.,4.8
1979-07-19 23:06:42.120 ,6,0,2.,4.8,0.,4.8,0.,4.8,0.,4.8
1979-07-19 23:06:46.920 ,6,0,2.,4.8,0.,4.8,0.,4.8,0.,4.8
1979-07-19 23:06:51.710 ,6,0,1.,4.8,0.,4.8,0.,4.8,0.,4.8
1979-07-19 23:06:56.520 ,6,0,3.,4.8,0.,4.8,0.,4.8,1.,4.8
1979-07-19 23:07:01.320 ,6,0,0.,4.8,0.,4.8,1.,4.8,0.,4.8
1979-07-19 23:07:06.120 ,6,0,2.,4.8,0.,4.8,0.,4.8,0.,4.8
1979-07-19 23:07:10.920 ,5,0,1.,4.8,0.,4.8,0.,4.8,0.,4.8
1979-07-19 23:07:15.710 ,5,0,0.,4.8,0.,4.8,0.,4.8,0.,4.8
1979-07-19 23:07:20.520 ,5,0,1.,4.8,0.,4.8,0.,4.8,0.,4.8
1979-07-19 23:07:25.320 ,5,0,4.,4.8,0.,4.8,0.,4.8,0.,4.8
1979-07-19 23:07:30.120 ,5,0,1.,4.8,0.,4.8,0.,4.8,0.,4.8
1979-07-19 23:07:34.920 ,5,0,0.,4.8,0.,4.8,0.,4.8,0.,4.8
1979-07-19 23:07:39.710 ,5,0,2.,4.8,0.,4.8,0.,4.8,0.,4.8
1979-07-19 23:07:44.520 ,5,0,4.,4.8,1.,4.8,0.,4.8,0.,4.8
1979-07-19 23:07:49.320 ,5,0,2.,4.8,0.,4.8,0.,4.8,0.,4.8
1979-07-19 23:07:54.120 ,5,0,0.,4.8,0.,4.8,0.,4.8,0.,4.8
1979-07-19 23:07:58.920 ,4,0,3.,4.8,0.,4.8,0.,4.8,0.,4.8
1979-07-19 23:08:03.710 ,4,0,2.,4.8,0.,4.8,0.,4.8,0.,4.8
1979-07-19 23:08:08.520 ,4,0,2.,4.8,0.,4.8,0.,4.8,0.,4.8
1979-07-19 23:08:13.320 ,4,0,1.,4.8,0.,4.8,0.,4.8,0.,4.8
1979-07-19 23:08:18.120 ,4,0,2.,4.8,0.,4.8,0.,4.8,0.,4.8
1979-07-19 23:08:22.920 ,4,0,1.,4.8,0.,4.8,0.,4.8,0.,4.8
1979-07-19 23:08:27.710 ,4,0,1.,4.8,0.,4.8,0.,4.8,0.,4.8
1979-07-19 23:08:32.520 ,4,0,0.,4.8,0.,4.8,1.,4.8,0.,4.8
1979-07-19 23:08:37.320 ,4,0,0.,4.8,0.,4.8,0.,4.8,0.,4.8
1979-07-19 23:08:42.110 ,4,0,3.,4.8,0.,4.8,0.,4.8,0.,4.8
1979-07-19 23:08:46.910 ,3,0,2.,4.8,0.,4.8,1.,4.8,0.,4.8
1979-07-19 23:08:51.720 ,3,0,0.,4.8,0.,4.8,0.,4.8,0.,4.8
1979-07-19 23:08:56.520 ,3,0,2.,4.8,0.,4.8,0.,4.8,0.,4.8
1979-07-19 23:09:01.320 ,3,0,1.,4.8,0.,4.8,0.,4.8,0.,4.8
1979-07-19 23:09:06.110 ,3,0,0.,4.8,0.,4.8,0.,4.8,1.,4.8
1979-07-19 23:09:10.910 ,3,0,1.,4.8,0.,4.8,0.,4.8,0.,4.8
1979-07-19 23:09:15.720 ,3,0,0.,4.8,0.,4.8,0.,4.8,0.,4.8
1979-07-19 23:09:20.520 ,3,0,2.,4.8,0.,4.8,0.,4.8,0.,4.8
1979-07-19 23:09:25.320 ,3,0,1.,4.8,0.,4.8,0.,4.8,0.,4.8
1979-07-19 23:09:30.110 ,3,0,2.,4.8,0.,4.8,0.,4.8,0.,4.8
1979-07-19 23:09:34.910 ,2,0,1.,4.8,0.,4.8,0.,4.8,0.,4.8
1979-07-19 23:09:39.720 ,2,0,2.,4.8,0.,4.8,0.,4.8,0.,4.8
1979-07-19 23:09:44.520 ,2,0,2.,4.8,0.,4.8,0.,4.8,0.,4.8
1979-07-19 23:09:49.320 ,2,0,2.,4.8,0.,4.8,1.,4.8,0.,4.8
1979-07-19 23:09:54.110 ,2,0,1.,4.8,0.,4.8,0.,4.8,0.,4.8
1979-07-19 23:09:58.910 ,2,0,1.,4.8,0.,4.8,0.,4.8,0.,4.8
1979-07-19 23:10:03.720 ,2,0,3.,4.8,0.,4.8,0.,4.8,0.,4.8
1979-07-19 23:10:08.520 ,2,0,3.,4.8,0.,4.8,0.,4.8,0.,4.8
1979-07-19 23:10:13.320 ,2,0,0.,4.8,0.,4.8,0.,4.8,0.,4.8
1979-07-19 23:10:18.110 ,2,0,3.,4.8,0.,4.8,0.,4.8,0.,4.8
1979-07-19 23:10:22.910 ,1,0,0.,4.8,0.,4.8,0.,4.8,1.,4.8
1979-07-19 23:10:27.720 ,1,0,1.,4.8,0.,4.8,0.,4.8,0.,4.8
1979-07-19 23:10:32.520 ,1,0,0.,4.8,0.,4.8,0.,4.8,0.,4.8
1979-07-19 23:10:37.320 ,1,0,1.,4.8,0.,4.8,0.,4.8,0.,4.8
1979-07-19 23:10:42.110 ,1,0,1.,4.8,0.,4.8,0.,4.8,1.,4.8
1979-07-19 23:10:46.910 ,1,0,1.,4.8,0.,4.8,0.,4.8,0.,4.8
1979-07-19 23:10:51.720 ,1,0,2.,4.8,0.,4.8,0.,4.8,0.,4.8
1979-07-19 23:10:56.520 ,1,0,0.,4.8,0.,4.8,0.,4.8,0.,4.8
1979-07-19 23:11:01.320 ,1,0,1.,4.8,0.,4.8,0.,4.8,0.,4.8
1979-07-19 23:11:06.110 ,1,0,0.,4.8,0.,4.8,0.,4.8,0.,4.8
1979-07-19 23:11:10.910 ,0,0,0.,4.8,0.,4.8,0.,4.8,1.,4.8
1979-07-19 23:11:15.720 ,0,0,2.,4.8,0.,4.8,0.,4.8,0.,4.8
1979-07-19 23:11:20.520 ,0,0,1.,4.8,0.,4.8,0.,4.8,0.,4.8
1979-07-19 23:11:25.320 ,0,0,1.,4.8,0.,4.8,1.,4.8,0.,4.8
1979-07-19 23:11:30.110 ,0,0,1.,4.8,0.,4.8,0.,4.8,0.,4.8
1979-07-19 23:11:34.910 ,0,0,1.,4.8,0.,4.8,0.,4.8,0.,4.8
1979-07-19 23:11:39.720 ,0,0,2.,4.8,0.,4.8,0.,4.8,0.,4.8
1979-07-19 23:11:44.520 ,0,0,1.,4.8,0.,4.8,0.,4.8,0.,4.8
1979-07-19 23:11:49.320 ,0,0,1.,4.8,0.,4.8,0.,4.8,0.,4.8
1979-07-19 23:11:54.110 ,0,0,2.,4.8,0.,4.8,0.,4.8,0.,4.8
1979-07-19 23:11:58.910 ,0,0,0.,4.8,0.,4.8,0.,4.8,0.,4.8
1979-07-19 23:12:03.720 ,0,0,1.,4.8,0.,4.8,0.,4.8,0.,4.8
1979-07-19 23:12:08.520 ,0,0,1.,4.8,0.,4.8,0.,4.8,0.,4.8
1979-07-19 23:12:13.320 ,0,0,0.,4.8,0.,4.8,0.,4.8,0.,4.8
1979-07-19 23:12:18.110 ,0,0,1.,4.8,1.,4.8,0.,4.8,0.,4.8
1979-07-19 23:12:22.910 ,0,0,4.,4.8,0.,4.8,0.,4.8,0.,4.8
1979-07-19 23:12:27.720 ,0,0,2.,4.8,0.,4.8,0.,4.8,0.,4.8
1979-07-19 23:12:32.520 ,0,0,0.,4.8,0.,4.8,0.,4.8,0.,4.8
1979-07-19 23:12:37.320 ,0,0,1.,4.8,0.,4.8,1.,4.8,0.,4.8
1979-07-19 23:12:42.110 ,0,0,1.,4.8,0.,4.8,0.,4.8,0.,4.8
1979-07-19 23:12:46.910 ,1,0,2.,4.8,2.,4.8,0.,4.8,0.,4.8
1979-07-19 23:12:51.720 ,1,0,2.,4.8,0.,4.8,0.,4.8,0.,4.8
1979-07-19 23:12:56.520 ,1,0,1.,4.8,0.,4.8,0.,4.8,0.,4.8
1979-07-19 23:13:01.320 ,1,0,2.,4.8,0.,4.8,0.,4.8,0.,4.8
1979-07-19 23:13:06.110 ,1,0,0.,4.8,0.,4.8,1.,4.8,0.,4.8
1979-07-19 23:13:10.910 ,1,0,3.,4.8,0.,4.8,0.,4.8,0.,4.8
1979-07-19 23:13:15.720 ,1,0,0.,4.8,0.,4.8,0.,4.8,1.,4.8
1979-07-19 23:13:20.520 ,1,0,1.,4.8,0.,4.8,0.,4.8,1.,4.8
1979-07-19 23:13:25.320 ,1,0,1.,4.8,0.,4.8,0.,4.8,0.,4.8
1979-07-19 23:13:30.110 ,1,0,0.,4.8,0.,4.8,0.,4.8,0.,4.8
1979-07-19 23:13:34.910 ,2,0,2.,4.8,0.,4.8,0.,4.8,0.,4.8
1979-07-19 23:13:39.720 ,2,0,0.,4.8,0.,4.8,1.,4.8,0.,4.8
1979-07-19 23:13:44.520 ,2,0,1.,4.8,0.,4.8,0.,4.8,0.,4.8
1979-07-19 23:13:49.320 ,2,0,3.,4.8,0.,4.8,0.,4.8,0.,4.8
1979-07-19 23:13:54.110 ,2,0,0.,4.8,0.,4.8,0.,4.8,0.,4.8
1979-07-19 23:13:58.910 ,2,0,3.,4.8,0.,4.8,0.,4.8,0.,4.8
1979-07-19 23:14:03.720 ,2,0,3.,4.8,0.,4.8,0.,4.8,0.,4.8
1979-07-19 23:14:08.520 ,2,0,1.,4.8,0.,4.8,0.,4.8,0.,4.8
1979-07-19 23:14:13.320 ,2,0,1.,4.8,0.,4.8,0.,4.8,0.,4.8
1979-07-19 23:14:18.110 ,2,0,1.,4.8,1.,4.8,0.,4.8,0.,4.8
1979-07-19 23:14:22.910 ,3,0,1.,4.8,0.,4.8,0.,4.8,0.,4.8
1979-07-19 23:14:27.720 ,3,0,0.,4.8,0.,4.8,0.,4.8,0.,4.8
1979-07-19 23:14:32.520 ,3,0,1.,4.8,0.,4.8,1.,4.8,0.,4.8
1979-07-19 23:14:37.320 ,3,0,1.,4.8,0.,4.8,0.,4.8,0.,4.8
1979-07-19 23:14:42.110 ,3,0,1.,4.8,0.,4.8,0.,4.8,0.,4.8
1979-07-19 23:14:46.910 ,3,0,0.,4.8,0.,4.8,0.,4.8,0.,4.8
1979-07-19 23:14:51.720 ,3,0,2.,4.8,0.,4.8,0.,4.8,0.,4.8
1979-07-19 23:14:56.520 ,3,0,1.,4.8,0.,4.8,0.,4.8,1.,4.8
1979-07-19 23:15:01.320 ,3,0,0.,4.8,0.,4.8,0.,4.8,0.,4.8
1979-07-19 23:15:06.110 ,3,0,0.,4.8,0.,4.8,0.,4.8,0.,4.8
1979-07-19 23:15:10.910 ,4,0,2.,4.8,0.,4.8,0.,4.8,0.,4.8
1979-07-19 23:15:15.720 ,4,0,1.,4.8,0.,4.8,0.,4.8,1.,4.8
1979-07-19 23:15:20.520 ,4,0,0.,4.8,0.,4.8,0.,4.8,0.,4.8
1979-07-19 23:15:25.320 ,4,0,1.,4.8,1.,4.8,0.,4.8,1.,4.8
1979-07-19 23:15:30.110 ,4,0,1.,4.8,0.,4.8,0.,4.8,0.,4.8
1979-07-19 23:15:34.910 ,4,0,1.,4.8,0.,4.8,0.,4.8,0.,4.8
1979-07-19 23:15:39.720 ,4,0,1.,4.8,0.,4.8,0.,4.8,0.,4.8
1979-07-19 23:15:44.520 ,4,0,1.,4.8,0.,4.8,0.,4.8,0.,4.8
1979-07-19 23:15:49.320 ,4,0,0.,4.8,0.,4.8,1.,4.8,0.,4.8
1979-07-19 23:15:54.110 ,4,0,1.,4.8,0.,4.8,0.,4.8,0.,4.8
1979-07-19 23:15:58.910 ,5,0,3.,4.8,0.,4.8,0.,4.8,0.,4.8
1979-07-19 23:16:03.720 ,5,0,1.,4.8,0.,4.8,0.,4.8,0.,4.8
1979-07-19 23:16:08.520 ,5,0,2.,4.8,0.,4.8,1.,4.8,0.,4.8
1979-07-19 23:16:13.320 ,5,0,1.,4.8,0.,4.8,0.,4.8,0.,4.8
1979-07-19 23:16:18.110 ,5,0,2.,4.8,0.,4.8,0.,4.8,0.,4.8
1979-07-19 23:16:22.910 ,5,0,0.,4.8,0.,4.8,0.,4.8,0.,4.8
1979-07-19 23:16:27.720 ,5,0,1.,4.8,0.,4.8,0.,4.8,0.,4.8
1979-07-19 23:16:32.520 ,5,0,3.,4.8,0.,4.8,0.,4.8,0.,4.8
1979-07-19 23:16:37.320 ,5,0,1.,4.8,0.,4.8,0.,4.8,0.,4.8
1979-07-19 23:16:42.110 ,5,0,3.,4.8,0.,4.8,0.,4.8,0.,4.8
1979-07-19 23:16:46.910 ,6,0,3.,4.8,0.,4.8,0.,4.8,0.,4.8
1979-07-19 23:16:51.720 ,6,0,0.,4.8,0.,4.8,1.,4.8,0.,4.8
1979-07-19 23:16:56.520 ,6,0,0.,4.8,0.,4.8,0.,4.8,0.,4.8
1979-07-19 23:17:01.320 ,6,0,0.,4.8,0.,4.8,0.,4.8,0.,4.8
1979-07-19 23:17:06.110 ,6,0,1.,4.8,0.,4.8,0.,4.8,0.,4.8
1979-07-19 23:17:10.910 ,6,0,1.,4.8,0.,4.8,0.,4.8,0.,4.8
1979-07-19 23:17:15.710 ,6,0,1.,4.8,0.,4.8,0.,4.8,0.,4.8
1979-07-19 23:17:20.510 ,6,0,3.,4.8,0.,4.8,0.,4.8,0.,4.8
1979-07-19 23:17:25.310 ,6,0,3.,4.8,0.,4.8,0.,4.8,0.,4.8
1979-07-19 23:17:30.110 ,6,0,0.,4.8,0.,4.8,0.,4.8,0.,4.8
1979-07-19 23:17:34.910 ,7,0,1.,4.8,0.,4.8,0.,4.8,0.,4.8
1979-07-19 23:17:39.710 ,7,0,1.,4.8,0.,4.8,0.,4.8,0.,4.8
1979-07-19 23:17:44.510 ,7,0,2.,4.8,0.,4.8,0.,4.8,0.,4.8
1979-07-19 23:17:49.310 ,7,0,0.,4.8,0.,4.8,0.,4.8,0.,4.8
1979-07-19 23:17:54.110 ,7,0,2.,4.8,0.,4.8,0.,4.8,0.,4.8
1979-07-19 23:17:58.910 ,7,0,0.,4.8,0.,4.8,0.,4.8,0.,4.8
1979-07-19 23:18:03.710 ,7,0,1.,4.8,0.,4.8,1.,4.8,0.,4.8
1979-07-19 23:18:08.510 ,7,0,2.,4.8,0.,4.8,0.,4.8,0.,4.8
1979-07-19 23:18:13.310 ,7,0,1.,4.8,0.,4.8,0.,4.8,0.,4.8
1979-07-19 23:18:18.110 ,7,0,1.,4.8,0.,4.8,0.,4.8,0.,4.8
1979-07-19 23:18:22.910 ,7,0,0.,4.8,0.,4.8,0.,4.8,0.,4.8
1979-07-19 23:18:27.710 ,7,0,1.,4.8,0.,4.8,0.,4.8,0.,4.8
1979-07-19 23:18:32.510 ,7,0,0.,4.8,0.,4.8,0.,4.8,0.,4.8
1979-07-19 23:18:37.310 ,7,0,2.,4.8,0.,4.8,0.,4.8,0.,4.8
1979-07-19 23:18:42.110 ,7,0,2.,4.8,0.,4.8,0.,4.8,0.,4.8
1979-07-19 23:18:46.910 ,7,0,0.,4.8,0.,4.8,1.,4.8,0.,4.8
1979-07-19 23:18:51.710 ,7,0,0.,4.8,0.,4.8,0.,4.8,0.,4.8
1979-07-19 23:18:56.510 ,7,0,1.,4.8,0.,4.8,1.,4.8,0.,4.8
1979-07-19 23:19:01.310 ,7,0,1.,4.8,0.,4.8,0.,4.8,0.,4.8
1979-07-19 23:19:06.110 ,7,0,1.,4.8,0.,4.8,0.,4.8,0.,4.8
1979-07-19 23:19:10.910 ,6,0,1.,4.8,0.,4.8,1.,4.8,0.,4.8
1979-07-19 23:19:15.710 ,6,0,1.,4.8,0.,4.8,0.,4.8,0.,4.8
1979-07-19 23:19:20.510 ,6,0,1.,4.8,0.,4.8,0.,4.8,0.,4.8
1979-07-19 23:19:25.310 ,6,0,1.,4.8,0.,4.8,0.,4.8,0.,4.8
1979-07-19 23:19:30.110 ,6,0,1.,4.8,0.,4.8,1.,4.8,0.,4.8
1979-07-19 23:19:34.910 ,6,0,3.,4.8,0.,4.8,0.,4.8,0.,4.8
1979-07-19 23:19:39.710 ,6,0,0.,4.8,0.,4.8,0.,4.8,0.,4.8
1979-07-19 23:19:44.510 ,6,0,1.,4.8,0.,4.8,0.,4.8,0.,4.8
1979-07-19 23:19:49.310 ,6,0,2.,4.8,0.,4.8,0.,4.8,0.,4.8
1979-07-19 23:19:54.110 ,6,0,0.,4.8,0.,4.8,0.,4.8,0.,4.8
1979-07-19 23:19:58.910 ,5,0,2.,4.8,0.,4.8,0.,4.8,0.,4.8
1979-07-19 23:20:03.710 ,5,0,0.,4.8,0.,4.8,0.,4.8,0.,4.8
1979-07-19 23:20:08.510 ,5,0,2.,4.8,0.,4.8,0.,4.8,0.,4.8
1979-07-19 23:20:13.310 ,5,0,1.,4.8,0.,4.8,0.,4.8,0.,4.8
1979-07-19 23:20:18.110 ,5,0,1.,4.8,0.,4.8,0.,4.8,0.,4.8
1979-07-19 23:20:22.910 ,5,0,3.,4.8,0.,4.8,0.,4.8,0.,4.8
1979-07-19 23:20:27.710 ,5,0,1.,4.8,0.,4.8,0.,4.8,0.,4.8
1979-07-19 23:20:32.510 ,5,0,0.,4.8,0.,4.8,0.,4.8,0.,4.8
1979-07-19 23:20:37.310 ,5,0,0.,4.8,1.,4.8,0.,4.8,0.,4.8
1979-07-19 23:20:42.110 ,5,0,2.,4.8,0.,4.8,0.,4.8,0.,4.8
1979-07-19 23:20:46.910 ,4,0,1.,4.8,0.,4.8,0.,4.8,0.,4.8
1979-07-19 23:20:51.710 ,4,0,1.,4.8,0.,4.8,0.,4.8,0.,4.8
1979-07-19 23:20:56.510 ,4,0,2.,4.8,0.,4.8,0.,4.8,0.,4.8
1979-07-19 23:21:01.310 ,4,0,0.,4.8,0.,4.8,0.,4.8,0.,4.8
1979-07-19 23:21:06.110 ,4,0,0.,4.8,0.,4.8,0.,4.8,0.,4.8
1979-07-19 23:21:10.910 ,4,0,1.,4.8,0.,4.8,0.,4.8,0.,4.8
1979-07-19 23:21:15.710 ,4,0,2.,4.8,0.,4.8,0.,4.8,0.,4.8
1979-07-19 23:21:20.510 ,4,0,1.,4.8,0.,4.8,0.,4.8,0.,4.8
1979-07-19 23:21:25.310 ,4,0,0.,4.8,0.,4.8,0.,4.8,1.,4.8
1979-07-19 23:21:30.110 ,4,0,1.,4.8,0.,4.8,0.,4.8,0.,4.8
1979-07-19 23:21:34.910 ,3,0,0.,4.8,0.,4.8,0.,4.8,0.,4.8
1979-07-19 23:21:39.710 ,3,0,2.,4.8,0.,4.8,0.,4.8,0.,4.8
1979-07-19 23:21:44.510 ,3,0,0.,4.8,1.,4.8,0.,4.8,0.,4.8
1979-07-19 23:21:49.310 ,3,0,2.,4.8,0.,4.8,0.,4.8,0.,4.8
1979-07-19 23:21:54.110 ,3,0,1.,4.8,0.,4.8,0.,4.8,0.,4.8
1979-07-19 23:21:58.910 ,3,0,0.,4.8,0.,4.8,0.,4.8,0.,4.8
1979-07-19 23:22:03.710 ,3,0,0.,4.8,0.,4.8,0.,4.8,0.,4.8
1979-07-19 23:22:08.510 ,3,0,0.,4.8,0.,4.8,1.,4.8,0.,4.8
1979-07-19 23:22:13.310 ,3,0,1.,4.8,0.,4.8,0.,4.8,0.,4.8
1979-07-19 23:22:18.110 ,3,0,3.,4.8,0.,4.8,0.,4.8,0.,4.8
1979-07-19 23:22:22.910 ,2,0,1.,4.8,0.,4.8,0.,4.8,0.,4.8
1979-07-19 23:22:27.710 ,2,0,4.,4.8,0.,4.8,0.,4.8,0.,4.8
1979-07-19 23:22:32.510 ,2,0,1.,4.8,0.,4.8,0.,4.8,2.,4.8
1979-07-19 23:22:37.310 ,2,0,1.,4.8,0.,4.8,0.,4.8,0.,4.8
1979-07-19 23:22:42.110 ,2,0,2.,4.8,0.,4.8,2.,4.8,0.,4.8
1979-07-19 23:22:46.910 ,2,0,4.,4.8,0.,4.8,0.,4.8,0.,4.8
1979-07-19 23:22:51.710 ,2,0,1.,4.8,0.,4.8,0.,4.8,0.,4.8
1979-07-19 23:22:56.510 ,2,0,2.,4.8,0.,4.8,0.,4.8,0.,4.8
1979-07-19 23:23:01.310 ,2,0,3.,4.8,0.,4.8,0.,4.8,0.,4.8
1979-07-19 23:23:06.110 ,2,0,0.,4.8,0.,4.8,0.,4.8,0.,4.8
1979-07-19 23:23:10.910 ,1,0,0.,4.8,1.,4.8,0.,4.8,0.,4.8
1979-07-19 23:23:15.710 ,1,0,0.,4.8,0.,4.8,0.,4.8,0.,4.8
1979-07-19 23:23:20.510 ,1,0,0.,4.8,0.,4.8,0.,4.8,0.,4.8
1979-07-19 23:23:25.310 ,1,0,2.,4.8,1.,4.8,0.,4.8,0.,4.8
1979-07-19 23:23:30.110 ,1,0,2.,4.8,0.,4.8,0.,4.8,0.,4.8
1979-07-19 23:23:34.910 ,1,0,0.,4.8,0.,4.8,0.,4.8,0.,4.8
1979-07-19 23:23:39.710 ,1,0,3.,4.8,0.,4.8,0.,4.8,0.,4.8
1979-07-19 23:23:44.510 ,1,0,1.,4.8,0.,4.8,0.,4.8,0.,4.8
1979-07-19 23:23:49.310 ,1,0,3.,4.8,0.,4.8,0.,4.8,0.,4.8
1979-07-19 23:23:54.110 ,1,0,2.,4.8,0.,4.8,1.,4.8,0.,4.8
1979-07-19 23:23:58.910 ,0,0,2.,4.8,1.,4.8,0.,4.8,1.,4.8
1979-07-19 23:24:03.710 ,0,0,0.,4.8,0.,4.8,0.,4.8,1.,4.8
1979-07-19 23:24:08.510 ,0,0,0.,4.8,0.,4.8,0.,4.8,0.,4.8
1979-07-19 23:24:13.310 ,0,0,4.,4.8,0.,4.8,0.,4.8,0.,4.8
1979-07-19 23:24:18.110 ,0,0,1.,4.8,0.,4.8,0.,4.8,0.,4.8
1979-07-19 23:24:22.910 ,0,0,4.,4.8,0.,4.8,0.,4.8,0.,4.8
1979-07-19 23:24:27.710 ,0,0,0.,4.8,0.,4.8,0.,4.8,0.,4.8
1979-07-19 23:24:32.510 ,0,0,0.,4.8,0.,4.8,0.,4.8,0.,4.8
1979-07-19 23:24:37.310 ,0,0,3.,4.8,0.,4.8,0.,4.8,0.,4.8
1979-07-19 23:24:42.110 ,0,0,3.,4.8,0.,4.8,0.,4.8,0.,4.8
1979-07-19 23:24:46.910 ,0,0,1.,4.8,0.,4.8,0.,4.8,0.,4.8
1979-07-19 23:24:51.710 ,0,0,1.,4.8,0.,4.8,0.,4.8,0.,4.8
1979-07-19 23:24:56.510 ,0,0,1.,4.8,1.,4.8,1.,4.8,0.,4.8
1979-07-19 23:25:01.310 ,0,0,1.,4.8,1.,4.8,1.,4.8,0.,4.8
1979-07-19 23:25:06.110 ,0,0,2.,4.8,0.,4.8,0.,4.8,0.,4.8
1979-07-19 23:25:10.910 ,0,0,0.,4.8,1.,4.8,0.,4.8,0.,4.8
1979-07-19 23:25:15.710 ,0,0,1.,4.8,0.,4.8,0.,4.8,0.,4.8
1979-07-19 23:25:20.510 ,0,0,0.,4.8,0.,4.8,0.,4.8,0.,4.8
1979-07-19 23:25:25.310 ,0,0,1.,4.8,0.,4.8,1.,4.8,0.,4.8
1979-07-19 23:25:30.110 ,0,0,2.,4.8,0.,4.8,0.,4.8,0.,4.8
1979-07-19 23:25:34.910 ,1,0,2.,4.8,0.,4.8,1.,4.8,0.,4.8
1979-07-19 23:25:39.710 ,1,0,2.,4.8,0.,4.8,0.,4.8,0.,4.8
1979-07-19 23:25:44.510 ,1,0,2.,4.8,0.,4.8,0.,4.8,0.,4.8
1979-07-19 23:25:49.310 ,1,0,0.,4.8,0.,4.8,0.,4.8,0.,4.8
1979-07-19 23:25:54.110 ,1,0,1.,4.8,0.,4.8,0.,4.8,0.,4.8
1979-07-19 23:25:58.910 ,1,0,1.,4.8,0.,4.8,0.,4.8,0.,4.8
1979-07-19 23:26:03.710 ,1,0,2.,4.8,1.,4.8,0.,4.8,0.,4.8
1979-07-19 23:26:08.510 ,1,0,1.,4.8,0.,4.8,0.,4.8,0.,4.8
1979-07-19 23:26:13.310 ,1,0,2.,4.8,0.,4.8,0.,4.8,0.,4.8
1979-07-19 23:26:18.110 ,1,0,2.,4.8,0.,4.8,1.,4.8,0.,4.8
1979-07-19 23:26:22.910 ,2,0,1.,4.8,0.,4.8,0.,4.8,1.,4.8
1979-07-19 23:26:27.710 ,2,0,1.,4.8,0.,4.8,0.,4.8,0.,4.8
1979-07-19 23:26:32.510 ,2,0,2.,4.8,0.,4.8,0.,4.8,0.,4.8
1979-07-19 23:26:37.310 ,2,0,3.,4.8,0.,4.8,1.,4.8,0.,4.8
1979-07-19 23:26:42.110 ,2,0,3.,4.8,0.,4.8,0.,4.8,1.,4.8
1979-07-19 23:26:46.910 ,2,0,2.,4.8,0.,4.8,0.,4.8,0.,4.8
1979-07-19 23:26:51.710 ,2,0,3.,4.8,0.,4.8,0.,4.8,0.,4.8
1979-07-19 23:26:56.510 ,2,0,2.,4.8,0.,4.8,0.,4.8,0.,4.8
1979-07-19 23:27:01.310 ,2,0,2.,4.8,0.,4.8,0.,4.8,0.,4.8
1979-07-19 23:27:06.110 ,2,0,1.,4.8,0.,4.8,0.,4.8,1.,4.8
1979-07-19 23:27:10.910 ,3,0,1.,4.8,1.,4.8,0.,4.8,1.,4.8
1979-07-19 23:27:15.710 ,3,0,1.,4.8,0.,4.8,0.,4.8,0.,4.8
1979-07-19 23:27:20.510 ,3,0,0.,4.8,0.,4.8,0.,4.8,0.,4.8
1979-07-19 23:27:25.310 ,3,0,1.,4.8,0.,4.8,0.,4.8,0.,4.8
1979-07-19 23:27:30.110 ,3,0,3.,4.8,0.,4.8,0.,4.8,0.,4.8
1979-07-19 23:27:34.910 ,3,0,0.,4.8,0.,4.8,0.,4.8,1.,4.8
1979-07-19 23:27:39.710 ,3,0,0.,4.8,0.,4.8,0.,4.8,0.,4.8
1979-07-19 23:27:44.510 ,3,0,0.,4.8,0.,4.8,0.,4.8,0.,4.8
1979-07-19 23:27:49.310 ,3,0,1.,4.8,0.,4.8,0.,4.8,0.,4.8
1979-07-19 23:27:54.110 ,3,0,2.,4.8,0.,4.8,0.,4.8,0.,4.8
1979-07-19 23:27:58.910 ,4,0,1.,4.8,0.,4.8,0.,4.8,0.,4.8
1979-07-19 23:28:03.710 ,4,0,2.,4.8,0.,4.8,0.,4.8,1.,4.8
1979-07-19 23:28:08.510 ,4,0,2.,4.8,0.,4.8,0.,4.8,0.,4.8
1979-07-19 23:28:13.310 ,4,0,0.,4.8,0.,4.8,0.,4.8,0.,4.8
1979-07-19 23:28:18.110 ,4,0,1.,4.8,0.,4.8,0.,4.8,0.,4.8
1979-07-19 23:28:22.910 ,4,0,2.,4.8,0.,4.8,1.,4.8,0.,4.8
1979-07-19 23:28:27.710 ,4,0,0.,4.8,0.,4.8,0.,4.8,0.,4.8
1979-07-19 23:28:32.510 ,4,0,1.,4.8,0.,4.8,0.,4.8,0.,4.8
1979-07-19 23:28:37.310 ,4,0,4.,4.8,0.,4.8,0.,4.8,0.,4.8
1979-07-19 23:28:42.110 ,4,0,1.,4.8,0.,4.8,0.,4.8,0.,4.8
1979-07-19 23:28:46.910 ,5,0,0.,4.8,0.,4.8,0.,4.8,0.,4.8
1979-07-19 23:28:51.710 ,5,0,1.,4.8,0.,4.8,0.,4.8,0.,4.8
1979-07-19 23:28:56.510 ,5,0,2.,4.8,0.,4.8,0.,4.8,0.,4.8
1979-07-19 23:29:01.310 ,5,0,0.,4.8,0.,4.8,0.,4.8,0.,4.8
1979-07-19 23:29:06.110 ,5,0,1.,4.8,0.,4.8,0.,4.8,0.,4.8
1979-07-19 23:29:10.910 ,5,0,0.,4.8,0.,4.8,1.,4.8,0.,4.8
1979-07-19 23:29:15.710 ,5,0,2.,4.8,0.,4.8,0.,4.8,0.,4.8
1979-07-19 23:29:20.510 ,5,0,3.,4.8,0.,4.8,0.,4.8,0.,4.8
1979-07-19 23:29:25.310 ,5,0,1.,4.8,0.,4.8,0.,4.8,0.,4.8
1979-07-19 23:29:30.110 ,5,0,0.,4.8,0.,4.8,1.,4.8,0.,4.8
1979-07-19 23:29:34.910 ,6,0,0.,4.8,0.,4.8,0.,4.8,0.,4.8
1979-07-19 23:29:39.710 ,6,0,2.,4.8,0.,4.8,0.,4.8,0.,4.8
1979-07-19 23:29:44.510 ,6,0,1.,4.8,0.,4.8,0.,4.8,0.,4.8
1979-07-19 23:29:49.310 ,6,0,1.,4.8,0.,4.8,0.,4.8,1.,4.8
1979-07-19 23:29:54.110 ,6,0,0.,4.8,0.,4.8,0.,4.8,0.,4.8
1979-07-19 23:29:58.910 ,6,0,0.,4.8,0.,4.8,1.,4.8,0.,4.8
1979-07-19 23:30:03.710 ,6,0,0.,4.8,0.,4.8,0.,4.8,0.,4.8
1979-07-19 23:30:08.510 ,6,0,1.,4.8,0.,4.8,0.,4.8,0.,4.8
1979-07-19 23:30:13.310 ,6,0,1.,4.8,0.,4.8,0.,4.8,0.,4.8
1979-07-19 23:30:18.110 ,6,0,1.,4.8,0.,4.8,0.,4.8,0.,4.8
1979-07-19 23:30:22.910 ,7,0,0.,4.8,1.,4.8,0.,4.8,0.,4.8
1979-07-19 23:30:27.710 ,7,0,1.,4.8,0.,4.8,0.,4.8,0.,4.8
1979-07-19 23:30:32.510 ,7,0,2.,4.8,0.,4.8,0.,4.8,0.,4.8
1979-07-19 23:30:37.310 ,7,0,0.,4.8,0.,4.8,0.,4.8,0.,4.8
1979-07-19 23:30:42.110 ,7,0,0.,4.8,0.,4.8,0.,4.8,0.,4.8
1979-07-19 23:30:46.910 ,7,0,0.,4.8,0.,4.8,0.,4.8,0.,4.8
1979-07-19 23:30:51.710 ,7,0,0.,4.8,0.,4.8,0.,4.8,0.,4.8
1979-07-19 23:30:56.510 ,7,0,0.,4.8,0.,4.8,0.,4.8,0.,4.8
1979-07-19 23:31:01.310 ,7,0,0.,4.8,0.,4.8,0.,4.8,0.,4.8
1979-07-19 23:31:06.110 ,7,0,1.,4.8,0.,4.8,0.,4.8,0.,4.8
1979-07-19 23:31:10.910 ,3,1,0.,4.8,0.,4.8,0.,4.8,0.,4.8
1979-07-19 23:31:15.710 ,3,1,1.,4.8,0.,4.8,0.,4.8,1.,4.8
1979-07-19 23:31:20.510 ,3,1,0.,4.8,0.,4.8,0.,4.8,0.,4.8
1979-07-19 23:31:25.310 ,3,1,1.,4.8,0.,4.8,0.,4.8,0.,4.8
1979-07-19 23:31:30.110 ,3,1,1.,4.8,0.,4.8,0.,4.8,0.,4.8
1979-07-19 23:31:34.910 ,0,1,0.,4.8,0.,4.8,0.,4.8,0.,4.8
1979-07-19 23:31:39.710 ,0,1,0.,4.8,0.,4.8,0.,4.8,0.,4.8
1979-07-19 23:31:44.510 ,0,1,0.,4.8,0.,4.8,0.,4.8,0.,4.8
1979-07-19 23:31:49.310 ,0,1,0.,4.8,0.,4.8,0.,4.8,0.,4.8
1979-07-19 23:31:54.110 ,0,1,2.,4.8,0.,4.8,0.,4.8,0.,4.8
1979-07-19 23:31:58.910 ,4,1,1.,4.8,0.,4.8,1.,4.8,0.,4.8
1979-07-19 23:32:03.710 ,4,1,0.,4.8,0.,4.8,0.,4.8,0.,4.8
1979-07-19 23:32:08.510 ,4,1,0.,4.8,0.,4.8,0.,4.8,0.,4.8
1979-07-19 23:32:13.310 ,4,1,1.,4.8,0.,4.8,0.,4.8,0.,4.8
1979-07-19 23:32:18.110 ,4,1,0.,4.8,0.,4.8,0.,4.8,0.,4.8
1979-07-19 23:32:22.910 ,7,1,1.,4.8,0.,4.8,0.,4.8,0.,4.8
1979-07-19 23:32:27.710 ,7,1,0.,4.8,0.,4.8,0.,4.8,0.,4.8
1979-07-19 23:32:32.510 ,7,1,0.,4.8,0.,4.8,0.,4.8,0.,4.8
1979-07-19 23:32:37.310 ,7,1,0.,4.8,0.,4.8,0.,4.8,0.,4.8
1979-07-19 23:32:42.110 ,7,1,0.,4.8,0.,4.8,0.,4.8,0.,4.8
1979-07-19 23:32:46.910 ,3,1,1.,4.8,0.,4.8,0.,4.8,0.,4.8
1979-07-19 23:32:51.710 ,3,1,0.,4.8,0.,4.8,0.,4.8,0.,4.8
1979-07-19 23:32:56.510 ,3,1,0.,4.8,0.,4.8,0.,4.8,0.,4.8
1979-07-19 23:33:01.310 ,3,1,0.,4.8,0.,4.8,1.,4.8,0.,4.8
1979-07-19 23:33:06.110 ,3,1,1.,4.8,0.,4.8,0.,4.8,0.,4.8
1979-07-19 23:33:10.910 ,0,1,1.,4.8,0.,4.8,1.,4.8,0.,4.8
1979-07-19 23:33:15.710 ,0,1,0.,4.8,0.,4.8,0.,4.8,0.,4.8
1979-07-19 23:33:20.510 ,0,1,1.,4.8,0.,4.8,0.,4.8,0.,4.8
1979-07-19 23:33:25.310 ,0,1,1.,4.8,0.,4.8,0.,4.8,0.,4.8
1979-07-19 23:33:30.110 ,0,1,2.,4.8,0.,4.8,0.,4.8,0.,4.8
1979-07-19 23:33:34.910 ,4,1,0.,4.8,0.,4.8,0.,4.8,0.,4.8
1979-07-19 23:33:39.710 ,4,1,0.,4.8,0.,4.8,0.,4.8,0.,4.8